www.pogodaiklimat.ru
ПОГОДА в Куби Пойнт
Время
(UTC), дата
15 25.11
18 25.11
21 25.11
00 26.11
03 26.11
06 26.11
09 26.11
12 26.11
15 26.11
18 26.11
21 26.11
00 27.11
03 27.11
06 27.11
09 27.11
12 27.11
15 27.11
18 27.11
21 27.11
00 28.11
03 28.11
06 28.11
09 28.11
12 28.11
15 28.11
18 28.11
21 28.11
00 29.11
03 29.11
06 29.11
09 29.11
12 29.11
15 29.11
18 29.11
21 29.11
00 30.11
03 30.11
06 30.11
09 30.11
12 30.11
15 30.11
18 30.11
21 30.11
00 1.12
03 1.12
06 1.12
09 1.12
12 1.12
15 1.12
18 1.12
21 1.12
00 2.12
03 2.12
06 2.12
Ветер
(напр.,м/с)
Видим. Явления Облачность Т
(С)
Тd
(С)
f
(%)
Тe
(С)
Тes
(С)
Комфортность P
(гПа)
Po
(гПа)
Тmin
(С)
Tmax
(С)
R
(мм)
R24
(мм)
S
(см)
В 3 14 км мгла 1/1 600 м
[Cu hum Ac trans]
+23.8 +19.8 78 +29 +29 душно 1011.9 1009.7
В 3 14 км мгла 1/1 600 м
[Cu hum]
+23.3 +18.5 74 +29 +29 душно 1011.0 1008.8
В 2 14 км мгла 1/1 600 м
[Cu hum Ac trans]
+22.8 +18.3 76 +28 +28 душно 1010.4 1008.2
СВ 4 20 км мгла 1/1 600 м
[Cu hum Ci fib]
+25.8 +18.6 64 +31 +32 очень
душно
1012.2 1010.0 +21.5
В 6 20 км мгла 1/1 600 м
[Cu hum]
+30.1 +18.3 49 +35 +39 очень
душно
1011.9 1009.7
СВ 3 20 км мгла 1/1 600 м
[Cu hum]
+31.1 +20.1 52 +38 +45 очень
душно
1009.1 1006.9
СЗ 4 18 км мгла 4/1 600 м
[Cu hum Ac trans]
+28.7 +23.0 71 +38 +38 очень
душно
1009.3 1007.1
В 1 14 км мгла 8/3 600 м
[Cu hum Ac As]
+27.7 +22.7 74 +37 +37 очень
душно
1011.0 1008.8 +31.7
В 3 14 км мгла 5/3 600 м
[Cu hum Ac As]
+25.6 +22.6 84 +34 +34 очень
душно
1011.4 1009.2
В 4 9000 м слаб. дождь {туман} 9/5 540 м
[Sc As op]
+24.8 +21.8 83 +32 +32 очень
душно
1010.7 1008.5 0.5
В 2 9000 м слаб. дождь {туман} 9/4 540 м
[Sc As op]
+23.9 +22.4 91 +31 +31 очень
душно
1009.9 1007.7 2
штиль 0 18 км мгла 9/3 600 м
[Cu hum Ac As]
+25.2 +23.3 89 +34 +35 очень
душно
1012.1 1009.9 +23.7 2 2.0
В 5 20 км мгла 9/1 600 м
[Cu hum Ac trans Cs]
+29.4 +23.4 70 +40 +43 очень
душно
1011.8 1009.6
штиль 0 18 км мгла {дождь} 9/3 600 м
[Cu hum Ac As]
+25.2 +23.3 89 +34 +38 очень
душно
1012.1 1009.9 +1.5 2 2.0
В 5 9000 м слаб. дождь {туман} 9/4 540 м
[Sc As trans]
+26.7 +24.4 87 +37 +37 очень
душно
1010.0 1007.8 0.5
В 3 14 км мгла {дождь} 9/4 600 м
[Sc diur, vesp Ac As]
+26.5 +22.7 80 +35 +35 очень
душно
1011.3 1009.1 +30.2 0.5
В 1 14 км мгла 8/8 600 м
[Sc diur, vesp]
+25.4 +22.5 84 +33 +33 очень
душно
1011.5 1009.3
В 3 14 км мгла 6/6 600 м
[Sc diur, vesp]
+26.3 +22.2 78 +34 +34 очень
душно
1010.1 1007.9
В 3 14 км мгла 8/1 600 м
[Cu hum Ac trans Cs]
+26.9 +22.3 76 +35 +35 очень
душно
1009.7 1007.5
В 4 20 км мгла 8/3 600 м
[Cu hum Ac trans Cs]
+27.2 +22.6 76 +36 +37 очень
душно
1011.7 1009.5 +25.3 0.5 0.5
В 3 20 км мгла 8/3 600 м
[Cu hum Ac trans Cs]
+26.8 +24.0 85 +37 +42 очень
душно
1012.4 1010.2
В 5 20 км мгла 5/5 600 м
[Sc diur, vesp]
+31.2 +24.5 68 +44 +47 опасность
перегрева
1009.0 1006.8
СВ 4 20 км мгла 6/6 600 м
[Sc diur, vesp]
+29.0 +23.1 71 +39 +39 очень
душно
1009.4 1007.2
В 5 14 км мгла 8/3 600 м
[Cu hum Ac trans]
+26.9 +23.0 79 +36 +36 очень
душно
1011.1 1008.9 +31.4
В 4 14 км мгла 8/3 600 м
[Sc diur, vesp Ac trans Ci sp]
+26.2 +22.5 80 +34 +34 очень
душно
1011.6 1009.4
В 4 8000 м слаб. ливневой дождь {туман} 10/5 540 м
[Sc As op]
+24.5 +23.1 92 +33 +33 очень
душно
1010.8 1008.6 0.5
В 4 12 км мгла {дождь} 9/4 540 м
[Sc Ac As]
+24.1 +22.6 91 +32 +32 очень
душно
1010.8 1008.6 0.7
В 6 7000 м слаб. дождь 10/4 540 м
[Sc As trans]
+23.6 +22.2 92 +31 +31 очень
душно
1013.1 1010.9 +3.6 4 4.1
В 4 18 км мгла {дождь} 8/3 600 м
[Cu hum Ac trans]
+27.1 +23.1 79 +36 +40 очень
душно
1012.2 1010.0 2
В 4 18 км в посл. час ливневой дождь {туман} 9/4 540 м
[Sc diur, vesp Ac As]
+25.8 +22.4 82 +34 +36 очень
душно
1010.0 1007.8 2
В 2 18 км мгла 8/4 600 м
[Sc diur, vesp Ac As Ci sp]
+25.4 +22.1 82 +33 +33 очень
душно
1009.9 1007.7
В 4 14 км мгла 5/3 600 м
[Cu hum Ac trans Cs]
+25.5 +21.9 81 +33 +33 очень
душно
1011.4 1009.2 +28.1
ЮЗ 1 14 км мгла 8/3 600 м
[Cu hum Ac trans]
+25.5 +22.1 81 +33 +33 очень
душно
1012.2 1010.0
В 3 12 км осадки на расстоянии {туман} 9/3 600 м
[Cu hum Ac As]
+25.3 +21.6 80 +32 +32 очень
душно
1011.2 1009.0
В 4 14 км мгла 4/1 600 м
[Cu hum Ac trans]
+24.4 +21.3 83 +31 +31 очень
душно
1010.8 1008.6
В 2 20 км мгла 4/1 600 м
[Cu hum Ci fib]
+27.2 +22.2 74 +35 +38 очень
душно
1012.1 1009.9 +23.2 2 1.9
В 8
{14}
20 км мгла 5/5 600 м
[Sc diur, vesp Ac trans Ci fib]
+29.0 +21.9 66 +37 +39 очень
душно
1011.7 1009.5
В 4 18 км осадки на расстоянии {туман} 8/8 600 м
[Sc diur, vesp]
+28.2 +21.9 69 +36 +38 очень
душно
1009.3 1007.1
В 6 20 км мгла 3/1 600 м
[Cu hum Ac trans]
+28.4 +21.5 66 +36 +36 очень
душно
1009.8 1007.6
В 2 14 км мгла 1/1 600 м
[Cu hum Ac trans]
+25.1 +21.4 80 +32 +32 очень
душно
1012.2 1010.0 +30.6
СВ 2 14 км мгла 1/1 600 м
[Cu hum Ac trans]
+25.2 +19.7 72 +31 +31 очень
душно
1012.9 1010.7
СВ 3 14 км мгла 3/1 600 м
[Cu hum Ac trans]
+25.6 +17.7 62 +30 +30 душно 1011.7 1009.5
СВ 3 14 км мгла 1/1 600 м
[Cu hum Ac trans]
+24.3 +17.5 66 +28 +28 душно 1011.1 1008.9
В 6 20 км мгла 9/1 600 м
[Cu hum Cs]
+25.9 +18.5 64 +31 +32 очень
душно
1012.1 1009.9 +23.4 260
В 6
{10}
20 км мгла 8/1 600 м
[Cu hum Ci]
+29.6 +20.6 58 +36 +40 очень
душно
1011.4 1009.2
В 4 20 км мгла 9/3 600 м
[Cu hum Cs]
+30.7 +21.1 57 +38 +42 очень
душно
1008.9 1006.7
С 3 18 км мгла 9/1 600 м
[Cu hum Cs]
+27.9 +22.3 72 +37 +37 очень
душно
1008.4 1006.2
СВ 2 18 км мгла 9/3 600 м
[Cu hum Cs]
+26.0 +21.7 77 +33 +33 очень
душно
1010.0 1007.8 +30.9
В 3 18 км мгла 9/3 600 м
[Cu hum Cs]
+23.4 +21.4 89 +32 +32 очень
душно
1010.5 1008.3
СВ 2 18 км мгла 9/1 600 м
[Cu hum Cs]
+23.4 +21.7 90 +32 +32 очень
душно
1008.9 1006.7
В 2 18 км мгла 9/3 600 м
[Cu hum Cs]
+22.1 +20.8 92 +28 +28 душно 1008.5 1006.3
СВ 2 20 км мгла 9/3 600 м
[Cu hum Cs]
+24.1 +21.9 88 +31 +33 очень
душно
1009.4 1007.2 +22.0
СЗ 2 20 км мгла 9/3 600 м
[Cu hum Ac trans Cs]
+28.7 +22.0 67 +37 +42 очень
душно
1008.6 1006.4
З 3 20 км мгла 9/3 600 м
[Cu hum Ac trans Cs]
+30.8 +23.4 65 +42 +45 опасность
перегрева
1006.4 1004.2
Местоположение метеостанции Куби Пойнт (Филиппины): широта 14.80 долгота 120.26 высота над уровнем моря 14 м.
В архиве по умолчанию представлена погода в Куби Пойнт за последнюю неделю. Архивные данные за месяц целиком и за предыдущие месяцы, начиная с января 2011 года, Вы можете получить, выбрав интересующий диапазон дат из раскрывающегося списка и нажав кнопку "Найти!".
*Определитесь, кто Вы:
Внимание! Время в таблицах - всемирное. Для получения местного времени необходимо прибавить поправку, которая равна 8 ч.
Смотрите также архив погоды в соседних городах и на ближайших метеорологических станциях:
Партнеры нашего сайта:      
Пояснения к столбцам:
  • Ветер - указаны скорость ветра в м/с - средняя за 10 мин, порывы в срок и между сроками (в фигурных скобках) и направление, откуда дует ветер: С - северный,
  • СВ - северо-восточный, В - восточный, ЮВ - юго-восточный, Ю - южный, ЮЗ - юго-западный, З - западный, СЗ - северо-западный.
  • Видимость - горизонтальная дальность видимости в метрах или километрах. При видимости от 1 до 10 км при отсутствии осадков обычно наблюдается дымка, при ухудшении видимости до 1 км и менее - туман. В сухую погоду видимость может ухудшаться дымом, пылью или мглою.
  • Явления - указаны атмосферные явления, наблюдавшиеся в срок или в последний час перед сроком; фигурными скобками обозначены явления, наблюдавшиеся между сроками (за 1-3 часа до срока); квадратными скобками обозначены град или гололедные отложения с указанием их диаметра в мм.
  • Облачность - указаны через наклонную черту общая и нижняя облачность в баллах и высота нижней границы облаков в метрах; квадратными скобками обозначены формы облаков: Ci - перистые, Cs - перисто-слоистые, Cc - перисто-кучевые, Ac - высококучевые, As - высокослоистые, Sc - слоисто-кучевые, Ns - слоисто-дождевые, Cu - кучевые, Cb - кучево-дождевые. Подробнее классификацию облаков см. в Атласе облаков (PDF).
  • T - Температура воздуха - температура, измеренная на высоте 2 м над землей.
  • Td - Температура точки росы - температура, при понижении до которой содержащийся в воздухе водяной пар достигнет насыщения.
  • f - Относительная влажность воздуха - влажноcть воздуха, измеренная на высоте 2 м над землей.
  • Te - Эффективная температура - температура, которую ощущает одетый по сезону человек в тени. Характеристика душности погоды. При расчете учитывается влияние влажности воздуха и скорости ветра на теплоощущения человека.
  • Tes - Эффективная температура на солнце - температура, которую ощущает человек, с поправкой на солнечный нагрев. Характеристика знойности погоды. Зависит от высоты солнца над горизонтом, облачности и скорости ветра. Ночью, в пасмурную погоду, а также при ветре 12 м/с и более поправка равна нулю.
  • P - Атмосферное давление - приведенное к уровню моря атмосферное давление.
  • Po - Атмосферное давление - измеренное на уровне метеостанции атмосферное давление.
  • Tmin - Минимальная температура - минимум температуры воздуха на высоте 2 м над землей.
  • Tmax - Максимальная температура - максимум температуры воздуха на высоте 2 м над землей.
  • R - Количество осадков - Количество выпавших осадков за период времени, мм. При наведении курсора мыши на число - период времени, за который выпало указанное количество осадков.
  • R24 - Количество осадков - Количество выпавших осадков за 24 часа, мм.
  • S - Снежный покров - Высота снежного покрова, см. При наведении курсора мыши на число - состояние снежного покрова и степень покрытия местности в баллах.